When you browse on this site, cookies collect data to enhance your experience and personalize the content and advertising you see.
Visit our Privacy Policy to learn more. By continuing to use the site, you agree to this use of cookies and data.
  • In Deutschland
  • Länderverzeichnis
  • Für 7 Tage
  • Wassertemperatur
  • Satellitenkarten
  • Wetterkarte
  • Widgets
  • user-avatar
    Anmelden

    Stündliche Wetter Kaufbeuren

    Heute, 19 November, Montag

    Zeit Temperatur Niederschläge Wind Luftdruck Luftfeuchtigkeit
    00:00 -2°C° 0.1 mm 2 m/S 700 mmHg 84%
    01:00 -2°C° 0 mm 2 m/S 699 mmHg 87%
    02:00 -2°C° 0.1 mm 3 m/S 699 mmHg 86%
    03:00 -2°C° 0.1 mm 3 m/S 698 mmHg 85%
    04:00 -2°C° 0.1 mm 3 m/S 698 mmHg 84%
    05:00 -2°C° 0.1 mm 3 m/S 697 mmHg 83%
    06:00 -4°C° 0.1 mm 3 m/S 697 mmHg 83%
    07:00 -4°C° 0 mm 4 m/S 696 mmHg 84%
    08:00 -3°C° 0.1 mm 4 m/S 696 mmHg 82%
    09:00 -3°C° 0.1 mm 4 m/S 696 mmHg 79%
    10:00 -3°C° 0.1 mm 4 m/S 696 mmHg 77%
    11:00 -2°C° 0.1 mm 5 m/S 695 mmHg 75%
    12:00 -2°C° 0.1 mm 5 m/S 695 mmHg 73%
    13:00 -2°C° 0 mm 5 m/S 694 mmHg 72%
    14:00 -2°C° 0 mm 4 m/S 694 mmHg 73%
    15:00 -2°C° 0 mm 4 m/S 694 mmHg 75%
    16:00 -2°C° 0 mm 4 m/S 694 mmHg 77%
    17:00 -3°C° 0 mm 4 m/S 694 mmHg 80%
    18:00 -3°C° 0 mm 4 m/S 694 mmHg 83%
    19:00 -4°C° 0 mm 4 m/S 694 mmHg 86%
    20:00 -4°C° 0 mm 4 m/S 693 mmHg 86%
    21:00 -4°C° 0 mm 3 m/S 693 mmHg 86%
    22:00 -5°C° 0 mm 3 m/S 693 mmHg 86%
    23:00 -5°C° 0 mm 3 m/S 693 mmHg 85%

    Morgen, 20 November, Dienstag

    Zeit Temperatur Niederschläge Wind Luftdruck Luftfeuchtigkeit
    00:00 -5°C° 0 mm 3 m/S 692 mmHg 84%
    01:00 -5°C° 0 mm 3 m/S 692 mmHg 84%
    02:00 -5°C° 0 mm 3 m/S 692 mmHg 83%
    03:00 -4°C° 0 mm 2 m/S 692 mmHg 82%
    04:00 -4°C° 0 mm 2 m/S 691 mmHg 81%
    05:00 -4°C° 0 mm 2 m/S 691 mmHg 80%
    06:00 -3°C° 0 mm 2 m/S 691 mmHg 79%
    07:00 -3°C° 0 mm 2 m/S 691 mmHg 79%
    08:00 -2°C° 0 mm 2 m/S 691 mmHg 74%
    09:00 +2°C° 0 mm 1 m/S 691 mmHg 68%
    10:00 +3°C° 0 mm 1 m/S 691 mmHg 63%
    11:00 +4°C° 0 mm 1 m/S 691 mmHg 61%
    12:00 +5°C° 0 mm 1 m/S 692 mmHg 58%
    13:00 +6°C° 0 mm 1 m/S 692 mmHg 56%
    14:00 +5°C° 0 mm 1 m/S 692 mmHg 62%
    15:00 +4°C° 0 mm 1 m/S 692 mmHg 69%
    16:00 +3°C° 0 mm 1 m/S 692 mmHg 75%
    17:00 +2°C° 0 mm 1 m/S 693 mmHg 78%
    18:00 +1°C° 0 mm 1 m/S 693 mmHg 82%
    19:00 0°C° 0 mm 1 m/S 694 mmHg 86%
    20:00 0°C° 0 mm 1 m/S 694 mmHg 85%
    21:00 0°C° 0 mm 1 m/S 695 mmHg 85%
    22:00 0°C° 0 mm 1 m/S 695 mmHg 84%
    23:00 0°C° 0 mm 1 m/S 695 mmHg 84%

    übermorgen, 21 November, Mittwoch

    Zeit Temperatur Niederschläge Wind Luftdruck Luftfeuchtigkeit
    00:00 0°C° 0 mm 1 m/S 695 mmHg 84%
    01:00 -2°C° 0 mm 2 m/S 695 mmHg 84%
    02:00 -2°C° 0 mm 2 m/S 696 mmHg 84%
    03:00 -2°C° 0 mm 2 m/S 696 mmHg 84%
    04:00 -2°C° 0 mm 2 m/S 696 mmHg 84%
    05:00 -2°C° 0 mm 2 m/S 696 mmHg 83%
    06:00 -2°C° 0 mm 2 m/S 696 mmHg 83%
    07:00 -2°C° 0 mm 2 m/S 696 mmHg 82%
    08:00 +1°C° 0 mm 1 m/S 697 mmHg 76%
    09:00 +3°C° 0 mm 1 m/S 697 mmHg 70%
    10:00 +5°C° 0 mm 1 m/S 697 mmHg 64%
    11:00 +6°C° 0 mm 1 m/S 697 mmHg 63%
    12:00 +7°C° 0 mm 1 m/S 697 mmHg 62%
    13:00 +7°C° 0 mm 2 m/S 697 mmHg 61%
    14:00 +5°C° 0 mm 2 m/S 697 mmHg 70%
    15:00 +5°C° 0 mm 1 m/S 697 mmHg 79%
    16:00 +4°C° 0 mm 1 m/S 698 mmHg 87%
    17:00 +3°C° 0 mm 1 m/S 698 mmHg 89%
    18:00 +2°C° 0 mm 1 m/S 698 mmHg 90%
    19:00 +1°C° 0 mm 1 m/S 699 mmHg 91%
    20:00 +1°C° 0 mm 1 m/S 699 mmHg 91%
    21:00 +1°C° 0 mm 1 m/S 699 mmHg 90%
    22:00 +1°C° 0 mm 1 m/S 700 mmHg 89%
    23:00 0°C° 0 mm 0 m/S 700 mmHg 89%

    22 November, Donnerstag

    Zeit Temperatur Niederschläge Wind Luftdruck Luftfeuchtigkeit
    00:00 0°C° 0 mm 0 m/S 700 mmHg 89%
    01:00 0°C° 0 mm 0 m/S 700 mmHg 88%
    02:00 0°C° 0 mm 0 m/S 700 mmHg 88%
    03:00 0°C° 0 mm 0 m/S 700 mmHg 88%
    04:00 0°C° 0 mm 1 m/S 700 mmHg 88%
    05:00 +1°C° 0 mm 1 m/S 701 mmHg 88%
    06:00 +1°C° 0 mm 1 m/S 701 mmHg 88%
    07:00 +1°C° 0 mm 1 m/S 701 mmHg 87%
    08:00 +2°C° 0 mm 1 m/S 701 mmHg 82%
    09:00 +4°C° 0 mm 1 m/S 702 mmHg 77%
    10:00 +4°C° 0 mm 0 m/S 702 mmHg 71%
    11:00 +6°C° 0 mm 1 m/S 702 mmHg 69%
    12:00 +7°C° 0 mm 1 m/S 702 mmHg 66%
    13:00 +8°C° 0 mm 1 m/S 702 mmHg 63%
    14:00 +7°C° 0 mm 1 m/S 702 mmHg 70%
    15:00 +5°C° 0 mm 0 m/S 702 mmHg 76%
    16:00 +4°C° 0 mm 0 m/S 702 mmHg 83%
    17:00 +3°C° 0 mm 0 m/S 703 mmHg 85%
    18:00 +3°C° 0 mm 1 m/S 703 mmHg 87%
    19:00 +3°C° 0 mm 1 m/S 703 mmHg 89%
    20:00 +2°C° 0 mm 1 m/S 703 mmHg 89%
    21:00 +2°C° 0 mm 1 m/S 704 mmHg 89%
    22:00 +2°C° 0 mm 1 m/S 704 mmHg 89%
    23:00 +2°C° 0 mm 1 m/S 704 mmHg 89%

    23 November, Freitag

    Zeit Temperatur Niederschläge Wind Luftdruck Luftfeuchtigkeit
    00:00 +2°C° 0 mm 1 m/S 704 mmHg 89%
    01:00 +2°C° 0 mm 1 m/S 704 mmHg 89%
    02:00 +2°C° 0 mm 1 m/S 704 mmHg 88%
    03:00 +2°C° 0 mm 1 m/S 705 mmHg 88%
    04:00 +2°C° 0 mm 1 m/S 705 mmHg 88%
    05:00 +2°C° 0 mm 1 m/S 705 mmHg 88%
    06:00 +2°C° 0 mm 1 m/S 705 mmHg 87%
    07:00 +2°C° 0 mm 1 m/S 705 mmHg 87%
    08:00 +3°C° 0 mm 1 m/S 705 mmHg 82%
    09:00 +5°C° 0 mm 1 m/S 705 mmHg 77%
    10:00 +5°C° 0 mm 0 m/S 705 mmHg 72%
    11:00 +8°C° 0 mm 1 m/S 705 mmHg 69%
    12:00 +9°C° 0 mm 1 m/S 705 mmHg 66%
    13:00 +10°C° 0 mm 1 m/S 705 mmHg 64%
    14:00 +8°C° 0 mm 1 m/S 704 mmHg 71%
    15:00 +7°C° 0 mm 1 m/S 704 mmHg 78%
    16:00 +6°C° 0 mm 1 m/S 704 mmHg 85%
    17:00 +5°C° 0 mm 1 m/S 703 mmHg 85%
    18:00 +3°C° 0 mm 2 m/S 703 mmHg 86%
    19:00 +2°C° 0 mm 2 m/S 703 mmHg 86%
    20:00 +2°C° 0 mm 2 m/S 703 mmHg 85%
    21:00 +2°C° 0 mm 2 m/S 702 mmHg 84%
    22:00 +2°C° 0 mm 2 m/S 702 mmHg 83%
    23:00 +3°C° 0 mm 1 m/S 702 mmHg 83%

    24 November, Samstag

    Zeit Temperatur Niederschläge Wind Luftdruck Luftfeuchtigkeit
    00:00 +3°C° 0 mm 1 m/S 701 mmHg 83%
    01:00 +3°C° 0 mm 1 m/S 701 mmHg 83%
    02:00 +3°C° 0 mm 1 m/S 700 mmHg 82%
    03:00 +3°C° 0 mm 1 m/S 700 mmHg 82%
    04:00 +3°C° 0 mm 1 m/S 699 mmHg 81%
    05:00 +3°C° 0 mm 2 m/S 699 mmHg 81%
    06:00 +3°C° 0 mm 2 m/S 698 mmHg 81%
    07:00 +3°C° 0 mm 2 m/S 698 mmHg 80%
    08:00 +4°C° 0 mm 2 m/S 698 mmHg 79%
    09:00 +5°C° 0 mm 2 m/S 697 mmHg 79%
    10:00 +5°C° 0 mm 2 m/S 697 mmHg 78%
    11:00 +6°C° 0 mm 2 m/S 697 mmHg 76%
    12:00 +7°C° 0 mm 2 m/S 696 mmHg 75%
    13:00 +8°C° 0 mm 3 m/S 696 mmHg 73%
    14:00 +7°C° 0.6 mm 3 m/S 697 mmHg 78%
    15:00 +5°C° 0.6 mm 4 m/S 697 mmHg 83%
    16:00 +3°C° 0.6 mm 5 m/S 697 mmHg 88%
    17:00 +4°C° 0.6 mm 4 m/S 698 mmHg 88%
    18:00 +4°C° 0.6 mm 4 m/S 698 mmHg 89%
    19:00 +4°C° 0.6 mm 3 m/S 698 mmHg 90%
    20:00 +4°C° 0.1 mm 3 m/S 699 mmHg 89%
    21:00 +3°C° 0.1 mm 3 m/S 699 mmHg 89%
    22:00 +3°C° 0.1 mm 3 m/S 699 mmHg 89%
    23:00 +3°C° 0 mm 4 m/S 699 mmHg 89%
    Mehr zeigen